Tracking 19706 objects as of 16-Jun-2019
HD Live streaming from Space Station
objects crossing your sky now

OPS 3148

Track OPS 3148 now!
OPS 3148 is classified as:


NORAD ID: 3889
Int'l Code: 1969-036A
Perigee: 31,965.2 km
Apogee: 39,568.5 km
Inclination: 8.5 °
Period: 1,434.7 minutes
Semi major axis: 42137 km
RCS: Unknown
Launch date: April 13, 1969
Source: United States (US)
Launch site: AIR FORCE EASTERN TEST RANGE (AFETR)
aabbcc
Your satellite tracking list
Your tracking list is empty




NASA's NSSDC Master Catalog

Two Line Element Set (TLE):
1 03889U 69036A   19161.53074169 0.00000000  00000-0  00000-0 0    08
2 03889   8.4828  63.9780 0902196 123.6980 245.2643  1.00367901    02
Source of the keplerian elements: McCants